QPF
0.03 0.01 0.00 0.00 0.00 0.00 0.00 0.00 0.00 0.00 0.00 0.00 0.00 0.00 0.00 0.00 0.00 0.00 0.00 0.00 0.00 0.00 0.00 0.00 0.00 0.00 0.00 0.00 0.00 0.00 0.00 0.00 0.00 0.00 0.00 0.00 0.00 0.00 0.00 0.00 0.00 0.00 0.00
0.03 0.01 0.01 0.00 0.00 0.00 0.00 0.00 0.00 0.00 0.00 0.00 0.00 0.00 0.00 0.00 0.00 0.00 0.00 0.00 0.00 0.00 0.00 0.00 0.00 0.00 0.00 0.00 0.00 0.00 0.00 0.00 0.00 0.00 0.00 0.00 0.00 0.00 0.00 0.00 0.00 0.00 0.00
0.02 0.01 0.01 0.01 0.01 0.00 0.00 0.00 0.00 0.00 0.00 0.00 0.00 0.00 0.00 0.00 0.00 0.00 0.00 0.00 0.00 0.00 0.00 0.00 0.00 0.00 0.00 0.00 0.00 0.00 0.01 0.00 0.00 0.00 0.00 0.00 0.00 0.00 0.00 0.00 0.00 0.00 0.00
0.02 0.02 0.02 0.02 0.01 0.01 0.01 0.01 0.00 0.00 0.00 0.00 0.00 0.00 0.00 0.00 0.00 0.00 0.00 0.00 0.00 0.00 0.00 0.00 0.00 0.00 0.00 0.00 0.00 0.00 0.01 0.01 0.00 0.00 0.00 0.00 0.00 0.00 0.00 0.00 0.00 0.00 0.00
0.02 0.02 0.03 0.03 0.03 0.02 0.02 0.01 0.01 0.00 0.00 0.00 0.00 0.00 0.00 0.00 0.00 0.00 0.00 0.00 0.00 0.00 0.00 0.00 0.00 0.00 0.00 0.00 0.00 0.00 0.01 0.01 0.00 0.00 0.00 0.00 0.00 0.00 0.00 0.00 0.00 0.00 0.00
0.01 0.02 0.03 0.03 0.04 0.03 0.03 0.02 0.02 0.01 0.00 0.00 0.00 0.00 0.00 0.00 0.00 0.00 0.00 0.00 0.00 0.00 0.00 0.00 0.00 0.00 0.00 0.00 0.00 0.00 0.01 0.01 0.01 0.00 0.00 0.00 0.00 0.00 0.00 0.00 0.00 0.00 0.00
0.00 0.01 0.02 0.02 0.03 0.03 0.02 0.02 0.01 0.01 0.00 0.00 0.00 0.00 0.00 0.00 0.00 0.00 0.00 0.00 0.00 0.00 0.00 0.00 0.00 0.00 0.00 0.00 0.00 0.00 0.00 0.01 0.01 0.00 0.00 0.00 0.00 0.00 0.00 0.00 0.00 0.00 0.00
0.00 0.00 0.00 0.01 0.01 0.01 0.01 0.01 0.01 0.01 0.00 0.00 0.00 0.00 0.00 0.00 0.00 0.00 0.00 0.00 0.00 0.00 0.00 0.00 0.00 0.00 0.00 0.00 0.00 0.00 0.00 0.00 0.01 0.01 0.00 0.00 0.00 0.00 0.00 0.00 0.00 0.00 0.00
0.00 0.00 0.00 0.00 0.00 0.00 0.00 0.00 0.00 0.00 0.00 0.00 0.00 0.00 0.00 0.00 0.00 0.00 0.00 0.00 0.00 0.00 0.00 0.00 0.00 0.00 0.00 0.00 0.00 0.00 0.00 0.00 0.00 0.01 0.01 0.00 0.00 0.00 0.00 0.00 0.00 0.00 0.00
0.00 0.00 0.00 0.00 0.00 0.00 0.00 0.00 0.00 0.00 0.00 0.00 0.00 0.00 0.00 0.00 0.00 0.00 0.00 0.00 0.00 0.00 0.00 0.00 0.00 0.00 0.00 0.00 0.00 0.00 0.00 0.00 0.00 0.00 0.00 0.00 0.00 0.00 0.00 0.00 0.00 0.00 0.00
0.00 0.00 0.00 0.00 0.00 0.00 0.00 0.00 0.00 0.00 0.00 0.00 0.00 0.00 0.00 0.00 0.00 0.00 0.00 0.00 0.00 0.00 0.00 0.00 0.00 0.00 0.00 0.00 0.00 0.00 0.00 0.00 0.00 0.00 0.00 0.00 0.00 0.00 0.00 0.00 0.00 0.00 0.00
0.00 0.00 0.00 0.00 0.00 0.00 0.00 0.00 0.00 0.00 0.00 0.00 0.00 0.00 0.00 0.00 0.00 0.00 0.00 0.00 0.00 0.00 0.00 0.00 0.00 0.00 0.00 0.00 0.00 0.00 0.00 0.00 0.00 0.00 0.00 0.00 0.00 0.00 0.00 0.00 0.00 0.00 0.00
0.00 0.00 0.00 0.00 0.00 0.00 0.00 0.00 0.00 0.00 0.00 0.00 0.00 0.00 0.00 0.00 0.00 0.00 0.00 0.00 0.00 0.00 0.00 0.00 0.00 0.00 0.00 0.00 0.00 0.00 0.00 0.00 0.00 0.00 0.00 0.00 0.00 0.00 0.00 0.00 0.00 0.00 0.00
0.00 0.00 0.00 0.00 0.00 0.00 0.00 0.00 0.00 0.00 0.00 0.00 0.00 0.00 0.00 0.00 0.00 0.00 0.00 0.00 0.00 0.00 0.00 0.00 0.00 0.00 0.00 0.00 0.00 0.00 0.00 0.00 0.00 0.00 0.00 0.00 0.00 0.00 0.00 0.00 0.00 0.00 0.00
0.00 0.00 0.00 0.00 0.00 0.00 0.00 0.00 0.00 0.00 0.00 0.00 0.00 0.00 0.00 0.00 0.00 0.00 0.00 0.00 0.00 0.00 0.00 0.00 0.00 0.00 0.00 0.00 0.00 0.00 0.00 0.00 0.00 0.00 0.00 0.00 0.00 0.00 0.00 0.00 0.00 0.00 0.00
0.00 0.00 0.00 0.00 0.00 0.00 0.00 0.00 0.00 0.00 0.00 0.00 0.00 0.00 0.00 0.00 0.00 0.00 0.00 0.00 0.00 0.00 0.00 0.00 0.00 0.00 0.00 0.00 0.00 0.00 0.00 0.00 0.00 0.00 0.00 0.00 0.00 0.00 0.00 0.00 0.00 0.00 0.00
0.00 0.00 0.00 0.00 0.00 0.00 0.00 0.00 0.00 0.00 0.00 0.00 0.00 0.00 0.00 0.00 0.00 0.00 0.00 0.00 0.00 0.00 0.00 0.00 0.00 0.00 0.00 0.00 0.00 0.00 0.00 0.00 0.00 0.00 0.00 0.00 0.00 0.00 0.00 0.00 0.00 0.00 0.00
0.00 0.00 0.00 0.00 0.00 0.00 0.00 0.00 0.00 0.00 0.00 0.00 0.00 0.00 0.00 0.00 0.00 0.00 0.00 0.00 0.00 0.00 0.00 0.00 0.00 0.00 0.00 0.00 0.00 0.00 0.00 0.00 0.00 0.00 0.00 0.00 0.00 0.00 0.00 0.00 0.00 0.00 0.00
0.00 0.00 0.00 0.00 0.00 0.00 0.00 0.00 0.00 0.00 0.00 0.00 0.00 0.00 0.00 0.00 0.00 0.00 0.00 0.00 0.00 0.00 0.00 0.00 0.00 0.00 0.00 0.00 0.00 0.00 0.00 0.00 0.00 0.00 0.00 0.00 0.00 0.00 0.00 0.00 0.00 0.00 0.00
0.00 0.00 0.00 0.00 0.00 0.00 0.00 0.00 0.00 0.00 0.00 0.00 0.00 0.00 0.00 0.00 0.00 0.00 0.00 0.00 0.00 0.00 0.00 0.00 0.00 0.00 0.00 0.00 0.00 0.00 0.00 0.00 0.00 0.00 0.00 0.00 0.00 0.00 0.00 0.00 0.00 0.00 0.00
0.00 0.00 0.00 0.00 0.00 0.00 0.00 0.00 0.00 0.00 0.00 0.00 0.00 0.00 0.00 0.00 0.00 0.00 0.00 0.00 0.00 0.00 0.00 0.00 0.00 0.00 0.00 0.00 0.00 0.00 0.00 0.00 0.00 0.00 0.00 0.00 0.00 0.00 0.00 0.00 0.00 0.00 0.00
0.00 0.00 0.00 0.00 0.00 0.00 0.00 0.00 0.00 0.00 0.00 0.00 0.00 0.00 0.00 0.00 0.00 0.00 0.00 0.00 0.00 0.00 0.01 0.01 0.01 0.00 0.00 0.00 0.00 0.00 0.00 0.00 0.00 0.00 0.00 0.00 0.00 0.00 0.00 0.00 0.00 0.00 0.00
0.00 0.00 0.00 0.00 0.00 0.00 0.00 0.00 0.00 0.00 0.00 0.00 0.00 0.00 0.00 0.00 0.00 0.00 0.00 0.00 0.00 0.00 0.00 0.01 0.01 0.00 0.00 0.00 0.01 0.01 0.00 0.00 0.00 0.00 0.00 0.00 0.00 0.00 0.00 0.00 0.00 0.00 0.00
0.00 0.00 0.00 0.00 0.00 0.00 0.00 0.00 0.00 0.00 0.00 0.00 0.00 0.00 0.00 0.00 0.00 0.00 0.00 0.00 0.00 0.00 0.00 0.00 0.00 0.00 0.00 0.00 0.00 0.01 0.01 0.01 0.00 0.00 0.00 0.00 0.00 0.00 0.00 0.00 0.00 0.00 0.00
0.00 0.00 0.00 0.00 0.00 0.00 0.00 0.00 0.01 0.01 0.01 0.00 0.00 0.00 0.00 0.00 0.00 0.01 0.01 0.01 0.01 0.00 0.00 0.00 0.01 0.01 0.01 0.01 0.01 0.03 0.03 0.03 0.02 0.00 0.00 0.00 0.00 0.00 0.00 0.00 0.00 0.00 0.00
0.00 0.00 0.00 0.00 0.00 0.00 0.00 0.00 0.01 0.01 0.01 0.00 0.00 0.00 0.00 0.00 0.01 0.01 0.02 0.02 0.02 0.01 0.00 0.01 0.01 0.00 0.00 0.00 0.01 0.02 0.04 0.05 0.04 0.01 0.00 0.00 0.00 0.00 0.01 0.01 0.00 0.00 0.01
MSLP
1020.33 1020.52 1020.72 1020.96 1021.26 1021.63 1022.05 1022.50 1022.93 1023.32 1023.63 1023.86 1024.01 1024.10 1024.16 1024.19 1024.20 1024.18 1024.13 1024.01 1023.81 1023.54 1023.21 1022.86 1022.53 1022.25 1022.07 1022.01 1022.06 1022.20 1022.41 1022.65 1022.87 1023.05 1023.18 1023.24 1023.25 1023.20 1023.11 1023.00 1022.86 1022.71 1022.56
1020.35 1020.48 1020.63 1020.83 1021.12 1021.49 1021.93 1022.40 1022.86 1023.28 1023.61 1023.86 1024.04 1024.14 1024.22 1024.26 1024.29 1024.29 1024.26 1024.15 1023.98 1023.72 1023.39 1023.03 1022.66 1022.34 1022.11 1021.98 1021.98 1022.07 1022.25 1022.47 1022.70 1022.93 1023.11 1023.24 1023.32 1023.34 1023.31 1023.23 1023.11 1022.96 1022.79
1020.57 1020.62 1020.72 1020.88 1021.15 1021.51 1021.95 1022.42 1022.89 1023.30 1023.63 1023.87 1024.03 1024.13 1024.19 1024.23 1024.26 1024.28 1024.26 1024.19 1024.05 1023.83 1023.54 1023.20 1022.84 1022.50 1022.24 1022.06 1021.99 1022.02 1022.15 1022.33 1022.56 1022.79 1023.01 1023.19 1023.33 1023.41 1023.43 1023.39 1023.30 1023.16 1022.99
1021.05 1021.03 1021.07 1021.19 1021.42 1021.75 1022.16 1022.61 1023.04 1023.42 1023.71 1023.91 1024.02 1024.08 1024.10 1024.12 1024.14 1024.15 1024.16 1024.13 1024.04 1023.88 1023.65 1023.36 1023.04 1022.72 1022.45 1022.24 1022.11 1022.08 1022.13 1022.26 1022.44 1022.65 1022.87 1023.08 1023.25 1023.38 1023.46 1023.46 1023.40 1023.28 1023.12
1021.81 1021.73 1021.71 1021.78 1021.97 1022.25 1022.60 1022.99 1023.35 1023.66 1023.87 1023.99 1024.04 1024.03 1024.00 1023.97 1023.96 1023.97 1023.99 1023.99 1023.96 1023.87 1023.71 1023.50 1023.24 1022.97 1022.71 1022.48 1022.31 1022.22 1022.19 1022.24 1022.35 1022.51 1022.70 1022.91 1023.10 1023.26 1023.38 1023.42 1023.40 1023.31 1023.18
1022.82 1022.70 1022.62 1022.64 1022.76 1022.98 1023.25 1023.54 1023.81 1024.02 1024.14 1024.17 1024.13 1024.04 1023.95 1023.87 1023.82 1023.81 1023.82 1023.85 1023.86 1023.82 1023.74 1023.60 1023.42 1023.19 1022.96 1022.73 1022.53 1022.38 1022.28 1022.24 1022.27 1022.37 1022.51 1022.69 1022.88 1023.06 1023.20 1023.29 1023.31 1023.26 1023.16
1024.00 1023.84 1023.74 1023.70 1023.76 1023.89 1024.06 1024.25 1024.41 1024.50 1024.52 1024.46 1024.34 1024.18 1024.02 1023.88 1023.79 1023.74 1023.74 1023.75 1023.77 1023.77 1023.73 1023.65 1023.52 1023.34 1023.13 1022.91 1022.69 1022.49 1022.33 1022.21 1022.17 1022.19 1022.27 1022.41 1022.59 1022.77 1022.94 1023.06 1023.12 1023.12 1023.05
1025.26 1025.09 1024.95 1024.87 1024.87 1024.91 1024.99 1025.07 1025.12 1025.12 1025.04 1024.90 1024.71 1024.50 1024.28 1024.09 1023.94 1023.84 1023.78 1023.75 1023.74 1023.72 1023.69 1023.62 1023.51 1023.36 1023.17 1022.96 1022.73 1022.50 1022.29 1022.12 1022.00 1021.96 1021.99 1022.09 1022.24 1022.42 1022.60 1022.76 1022.86 1022.89 1022.87
1026.47 1026.31 1026.17 1026.07 1026.01 1025.98 1025.98 1025.97 1025.92 1025.84 1025.70 1025.50 1025.27 1025.02 1024.76 1024.52 1024.31 1024.14 1023.99 1023.88 1023.78 1023.70 1023.61 1023.50 1023.38 1023.22 1023.04 1022.83 1022.60 1022.35 1022.12 1021.91 1021.76 1021.67 1021.66 1021.73 1021.86 1022.03 1022.21 1022.38 1022.52 1022.60 1022.62
1027.57 1027.44 1027.31 1027.20 1027.11 1027.04 1026.97 1026.89 1026.78 1026.64 1026.46 1026.24 1025.99 1025.72 1025.44 1025.15 1024.87 1024.61 1024.35 1024.12 1023.89 1023.69 1023.49 1023.31 1023.12 1022.93 1022.73 1022.52 1022.29 1022.05 1021.82 1021.60 1021.43 1021.33 1021.29 1021.33 1021.44 1021.59 1021.78 1021.96 1022.11 1022.23 1022.29
1028.51 1028.43 1028.33 1028.22 1028.12 1028.02 1027.91 1027.78 1027.64 1027.47 1027.27 1027.05 1026.80 1026.52 1026.22 1025.89 1025.54 1025.18 1024.80 1024.41 1024.04 1023.68 1023.35 1023.05 1022.77 1022.53 1022.30 1022.07 1021.85 1021.62 1021.40 1021.20 1021.04 1020.93 1020.88 1020.90 1020.99 1021.13 1021.30 1021.48 1021.65 1021.79 1021.89
1029.28 1029.25 1029.19 1029.11 1029.01 1028.89 1028.75 1028.60 1028.43 1028.24 1028.04 1027.82 1027.58 1027.30 1026.99 1026.62 1026.21 1025.74 1025.24 1024.71 1024.17 1023.66 1023.18 1022.75 1022.38 1022.06 1021.78 1021.54 1021.32 1021.11 1020.92 1020.74 1020.59 1020.49 1020.44 1020.45 1020.52 1020.64 1020.79 1020.96 1021.13 1021.28 1021.41
1029.89 1029.90 1029.88 1029.82 1029.73 1029.61 1029.45 1029.28 1029.09 1028.89 1028.68 1028.47 1028.23 1027.95 1027.62 1027.22 1026.75 1026.20 1025.59 1024.93 1024.26 1023.61 1022.99 1022.45 1021.98 1021.58 1021.26 1021.00 1020.77 1020.58 1020.40 1020.25 1020.11 1020.02 1019.97 1019.97 1020.02 1020.11 1020.24 1020.40 1020.55 1020.71 1020.86
1030.35 1030.40 1030.41 1030.37 1030.27 1030.13 1029.96 1029.76 1029.54 1029.32 1029.10 1028.88 1028.64 1028.35 1028.01 1027.59 1027.08 1026.47 1025.78 1025.04 1024.27 1023.51 1022.80 1022.16 1021.61 1021.16 1020.79 1020.49 1020.25 1020.05 1019.88 1019.73 1019.60 1019.51 1019.45 1019.44 1019.47 1019.54 1019.64 1019.78 1019.93 1020.09 1020.25
1030.67 1030.74 1030.76 1030.71 1030.61 1030.44 1030.24 1030.00 1029.75 1029.50 1029.26 1029.01 1028.75 1028.46 1028.11 1027.67 1027.14 1026.51 1025.79 1025.01 1024.20 1023.39 1022.62 1021.92 1021.32 1020.81 1020.39 1020.05 1019.78 1019.55 1019.35 1019.19 1019.05 1018.94 1018.87 1018.84 1018.85 1018.90 1018.99 1019.11 1019.25 1019.42 1019.59
1030.87 1030.93 1030.93 1030.86 1030.73 1030.53 1030.28 1030.00 1029.71 1029.42 1029.14 1028.87 1028.59 1028.29 1027.93 1027.50 1026.97 1026.35 1025.64 1024.86 1024.05 1023.24 1022.46 1021.74 1021.09 1020.54 1020.06 1019.67 1019.34 1019.06 1018.82 1018.61 1018.44 1018.30 1018.20 1018.15 1018.14 1018.18 1018.26 1018.37 1018.52 1018.70 1018.90
1030.92 1030.95 1030.92 1030.82 1030.65 1030.41 1030.12 1029.79 1029.46 1029.13 1028.81 1028.51 1028.22 1027.90 1027.55 1027.13 1026.63 1026.04 1025.38 1024.64 1023.87 1023.08 1022.31 1021.59 1020.92 1020.33 1019.80 1019.33 1018.92 1018.56 1018.24 1017.97 1017.74 1017.55 1017.42 1017.35 1017.32 1017.35 1017.43 1017.56 1017.73 1017.93 1018.16
1030.84 1030.84 1030.77 1030.64 1030.42 1030.14 1029.81 1029.45 1029.08 1028.72 1028.38 1028.06 1027.75 1027.43 1027.08 1026.69 1026.22 1025.68 1025.06 1024.39 1023.66 1022.92 1022.18 1021.46 1020.78 1020.14 1019.54 1018.99 1018.49 1018.03 1017.62 1017.26 1016.96 1016.71 1016.54 1016.43 1016.40 1016.43 1016.52 1016.66 1016.86 1017.09 1017.36
1030.66 1030.63 1030.54 1030.37 1030.13 1029.82 1029.46 1029.07 1028.68 1028.30 1027.94 1027.61 1027.29 1026.97 1026.63 1026.25 1025.82 1025.32 1024.75 1024.12 1023.45 1022.75 1022.03 1021.32 1020.62 1019.93 1019.27 1018.64 1018.04 1017.47 1016.96 1016.50 1016.11 1015.80 1015.58 1015.44 1015.38 1015.41 1015.51 1015.68 1015.90 1016.16 1016.47
1030.44 1030.40 1030.29 1030.10 1029.85 1029.52 1029.15 1028.75 1028.35 1027.96 1027.59 1027.25 1026.92 1026.60 1026.26 1025.88 1025.46 1024.98 1024.43 1023.84 1023.20 1022.52 1021.82 1021.11 1020.39 1019.67 1018.95 1018.24 1017.55 1016.90 1016.28 1015.73 1015.26 1014.87 1014.58 1014.40 1014.32 1014.33 1014.43 1014.61 1014.85 1015.14 1015.48
1030.25 1030.22 1030.11 1029.92 1029.65 1029.32 1028.94 1028.54 1028.13 1027.73 1027.35 1026.99 1026.65 1026.30 1025.94 1025.55 1025.11 1024.62 1024.08 1023.48 1022.85 1022.19 1021.50 1020.78 1020.05 1019.31 1018.56 1017.80 1017.05 1016.32 1015.63 1014.99 1014.44 1013.98 1013.62 1013.38 1013.25 1013.23 1013.30 1013.48 1013.72 1014.04 1014.40
1030.16 1030.14 1030.04 1029.86 1029.58 1029.24 1028.85 1028.43 1028.01 1027.59 1027.19 1026.80 1026.42 1026.03 1025.62 1025.18 1024.70 1024.17 1023.59 1022.98 1022.34 1021.67 1020.99 1020.29 1019.57 1018.83 1018.08 1017.32 1016.54 1015.78 1015.03 1014.33 1013.70 1013.17 1012.73 1012.41 1012.22 1012.14 1012.17 1012.32 1012.55 1012.86 1013.23
1030.20 1030.20 1030.11 1029.91 1029.62 1029.26 1028.83 1028.38 1027.92 1027.46 1027.01 1026.57 1026.13 1025.67 1025.20 1024.68 1024.13 1023.53 1022.91 1022.26 1021.59 1020.93 1020.26 1019.58 1018.91 1018.22 1017.51 1016.78 1016.02 1015.26 1014.50 1013.76 1013.07 1012.46 1011.94 1011.53 1011.25 1011.10 1011.06 1011.16 1011.35 1011.65 1012.02
1030.35 1030.36 1030.26 1030.03 1029.70 1029.28 1028.80 1028.28 1027.75 1027.22 1026.70 1026.18 1025.66 1025.12 1024.55 1023.95 1023.31 1022.64 1021.95 1021.26 1020.58 1019.92 1019.28 1018.66 1018.05 1017.44 1016.81 1016.16 1015.46 1014.74 1013.99 1013.24 1012.51 1011.83 1011.23 1010.73 1010.35 1010.10 1009.99 1010.02 1010.17 1010.44 1010.81
1030.55 1030.54 1030.39 1030.10 1029.69 1029.18 1028.61 1028.01 1027.38 1026.77 1026.16 1025.55 1024.94 1024.31 1023.65 1022.96 1022.24 1021.49 1020.74 1020.01 1019.32 1018.67 1018.08 1017.53 1017.01 1016.50 1015.98 1015.42 1014.82 1014.15 1013.44 1012.69 1011.93 1011.20 1010.52 1009.94 1009.47 1009.14 1008.95 1008.92 1009.03 1009.27 1009.62
1030.70 1030.63 1030.39 1030.01 1029.49 1028.88 1028.20 1027.48 1026.76 1026.05 1025.35 1024.67 1023.98 1023.27 1022.53 1021.76 1020.96 1020.16 1019.36 1018.60 1017.90 1017.27 1016.72 1016.24 1015.81 1015.41 1014.99 1014.53 1014.01 1013.42 1012.74 1012.01 1011.23 1010.46 1009.73 1009.08 1008.54 1008.14 1007.90 1007.82 1007.91 1008.14 1008.49
Thickness
5658 5655 5651 5649 5647 5645 5643 5640 5637 5635 5634 5633 5633 5632 5632 5631 5631 5632 5633 5634 5634 5635 5637 5639 5641 5642 5643 5644 5645 5645 5645 5645 5644 5645 5646 5648 5650 5652 5654 5656 5658 5660 5662
5653 5650 5646 5643 5640 5639 5637 5635 5632 5629 5627 5626 5625 5624 5624 5624 5624 5625 5625 5626 5627 5628 5629 5631 5633 5635 5636 5637 5638 5639 5639 5638 5637 5637 5638 5640 5642 5644 5646 5648 5650 5652 5654
5644 5642 5638 5635 5632 5630 5628 5625 5623 5622 5620 5618 5617 5616 5615 5615 5616 5616 5617 5618 5618 5619 5620 5622 5624 5626 5627 5629 5630 5631 5631 5631 5630 5629 5630 5631 5633 5635 5637 5638 5640 5642 5644
5632 5629 5627 5623 5621 5618 5616 5613 5612 5610 5610 5608 5607 5606 5606 5606 5607 5608 5609 5609 5609 5609 5610 5611 5613 5615 5617 5620 5622 5623 5624 5623 5623 5622 5622 5623 5625 5626 5628 5629 5630 5632 5634
5616 5615 5612 5610 5608 5605 5602 5599 5597 5595 5596 5596 5595 5596 5596 5597 5598 5599 5600 5601 5600 5600 5600 5601 5602 5604 5606 5609 5612 5614 5616 5616 5615 5614 5614 5615 5616 5617 5619 5620 5621 5623 5624
5598 5597 5595 5593 5592 5590 5587 5585 5582 5580 5579 5580 5582 5584 5585 5587 5589 5591 5591 5591 5591 5590 5590 5591 5591 5593 5595 5597 5600 5603 5606 5608 5608 5606 5606 5607 5608 5609 5610 5611 5613 5614 5616
5578 5578 5576 5575 5574 5572 5570 5569 5568 5567 5565 5564 5566 5570 5574 5575 5577 5578 5578 5578 5579 5578 5579 5579 5580 5582 5583 5585 5588 5591 5595 5598 5600 5599 5598 5598 5599 5600 5601 5603 5605 5606 5608
5559 5558 5556 5554 5554 5553 5552 5551 5551 5550 5549 5548 5548 5551 5555 5559 5562 5565 5565 5566 5566 5566 5567 5568 5570 5571 5573 5575 5577 5579 5582 5587 5590 5591 5591 5590 5590 5591 5592 5594 5596 5598 5599
5538 5537 5535 5534 5533 5532 5530 5530 5531 5531 5529 5529 5529 5530 5533 5536 5539 5549 5550 5551 5552 5553 5555 5557 5559 5561 5562 5564 5566 5568 5570 5574 5578 5581 5582 5582 5582 5582 5583 5584 5587 5589 5591
5517 5515 5513 5512 5511 5510 5509 5508 5509 5509 5510 5509 5510 5509 5509 5511 5517 5528 5535 5536 5537 5538 5541 5543 5546 5549 5551 5553 5555 5557 5559 5562 5565 5569 5572 5573 5573 5573 5573 5575 5577 5579 5581
5495 5493 5491 5490 5488 5487 5486 5485 5485 5486 5486 5486 5487 5489 5491 5492 5494 5500 5516 5522 5521 5523 5526 5529 5533 5536 5539 5541 5544 5547 5549 5551 5554 5557 5560 5563 5564 5564 5564 5566 5567 5570 5572
5472 5470 5468 5467 5465 5463 5462 5462 5462 5462 5462 5463 5463 5465 5466 5469 5471 5474 5485 5500 5508 5511 5513 5516 5520 5523 5527 5530 5533 5536 5538 5541 5544 5547 5550 5553 5555 5555 5555 5556 5558 5560 5562
5449 5446 5445 5443 5442 5440 5439 5439 5439 5438 5438 5439 5439 5440 5442 5444 5447 5451 5457 5469 5484 5497 5501 5504 5506 5510 5513 5516 5520 5524 5527 5529 5533 5536 5539 5542 5544 5545 5546 5546 5548 5550 5553
5427 5425 5423 5421 5419 5418 5417 5416 5416 5415 5415 5416 5417 5418 5419 5421 5424 5427 5430 5436 5451 5472 5483 5488 5492 5494 5498 5501 5506 5509 5513 5516 5520 5523 5527 5530 5533 5534 5535 5536 5538 5540 5543
5409 5406 5403 5401 5399 5397 5395 5394 5393 5393 5393 5393 5394 5396 5398 5400 5402 5404 5406 5409 5414 5431 5458 5471 5472 5478 5479 5483 5488 5493 5498 5502 5505 5509 5513 5517 5520 5523 5524 5525 5527 5530 5532
5389 5386 5383 5380 5377 5375 5373 5372 5371 5371 5371 5371 5371 5373 5375 5377 5380 5382 5384 5387 5389 5395 5414 5442 5448 5454 5459 5465 5469 5475 5481 5485 5490 5494 5497 5502 5507 5511 5513 5515 5517 5519 5522
5367 5363 5359 5356 5353 5351 5349 5348 5347 5347 5347 5348 5348 5349 5351 5351 5355 5358 5360 5364 5368 5371 5382 5407 5419 5431 5437 5444 5450 5455 5461 5466 5473 5477 5482 5487 5492 5497 5501 5504 5506 5508 5511
5345 5340 5336 5332 5329 5326 5323 5322 5321 5321 5321 5322 5323 5324 5326 5326 5329 5332 5335 5340 5345 5350 5356 5372 5389 5401 5412 5420 5427 5434 5441 5446 5453 5460 5465 5470 5477 5482 5488 5492 5494 5497 5499
5322 5317 5312 5308 5304 5300 5297 5296 5295 5295 5295 5295 5296 5297 5299 5299 5303 5306 5308 5314 5320 5326 5332 5343 5360 5369 5384 5394 5401 5412 5419 5426 5433 5439 5446 5454 5460 5466 5472 5478 5482 5485 5487
5300 5294 5289 5283 5279 5275 5272 5270 5269 5269 5269 5270 5269 5269 5270 5271 5274 5277 5282 5288 5292 5299 5306 5315 5330 5342 5353 5366 5373 5385 5394 5403 5412 5419 5427 5435 5443 5449 5457 5465 5470 5471 5472
5277 5271 5266 5261 5257 5253 5250 5247 5246 5247 5247 5248 5248 5245 5245 5245 5246 5248 5253 5260 5263 5269 5276 5285 5299 5314 5329 5335 5344 5354 5363 5378 5389 5398 5405 5417 5424 5433 5440 5448 5453 5457 5458
5256 5251 5247 5243 5240 5235 5231 5228 5225 5226 5226 5226 5226 5225 5223 5223 5224 5225 5228 5231 5235 5240 5246 5253 5268 5284 5301 5305 5311 5319 5330 5345 5366 5383 5382 5396 5400 5412 5425 5431 5437 5440 5442
5238 5234 5230 5226 5224 5219 5215 5213 5208 5205 5206 5204 5203 5203 5205 5203 5201 5203 5207 5211 5214 5214 5218 5224 5237 5252 5262 5272 5276 5289 5298 5308 5333 5350 5348 5371 5382 5395 5407 5411 5416 5421 5426
5221 5217 5214 5209 5207 5204 5199 5196 5191 5190 5189 5187 5185 5184 5184 5186 5184 5185 5190 5195 5198 5199 5200 5204 5213 5225 5229 5235 5239 5247 5258 5274 5298 5317 5323 5343 5364 5375 5385 5389 5396 5402 5407
5206 5201 5198 5194 5190 5187 5181 5178 5176 5176 5175 5174 5171 5170 5169 5171 5172 5172 5177 5183 5187 5188 5188 5191 5198 5205 5211 5215 5217 5222 5232 5242 5266 5291 5299 5312 5340 5349 5359 5369 5378 5383 5389
5190 5186 5183 5178 5173 5170 5166 5163 5160 5160 5161 5162 5163 5162 5162 5163 5166 5166 5169 5174 5180 5183 5184 5187 5190 5193 5196 5199 5199 5200 5206 5216 5235 5259 5281 5287 5308 5314 5327 5350 5359 5365 5370